GW1490 Weather Reports


time (UTC)temp
C
wind
direction
speed
KPH
gust
KPH
rain 1hr
cm
rain 24hr
cm
rain mn
cm
humidity
%
barometer
mb
20260504141236 15 149 12.9 16.1 0.00 0.00 0.05 71 994.9
20260504140653 15 212 8.0 12.9 0.00 0.00 0.05 72 994.9
20260504130633 13 187 9.7 16.1 0.00 0.00 0.05 68 994.5
20260504110627 7 216 1.6 3.2 0.00 0.00 0.05 98 994.5
20260504081815 7 225 1.6 1.6 0.00 0.00 0.05 99 995.2
20260504081216 7 229 0.0 0.0 0.00 0.00 0.05 99 995.5
20260504080626 7 234 0.0 1.6 0.00 0.00 0.05 99 995.5
20260504045417 9 234 0.0 0.0 0.00 0.00 0.05 97 997.2
20260504044831 9 235 0.0 0.0 0.00 0.00 0.05 97 996.9
20260504044221 8 236 0.0 0.0 0.00 0.00 0.05 96 996.9
20260504043642 9 236 0.0 0.0 0.00 0.00 0.05 96 997.2
20260504043048 9 237 0.0 0.0 0.00 0.00 0.05 95 996.9
20260504042431 9 249 0.0 1.6 0.00 0.00 0.05 94 996.9
20260504041228 10 220 1.6 1.6 0.00 0.00 0.03 91 997.2
20260504040644 10 234 0.0 0.0 0.00 0.00 0.03 87 996.9
20260504040030 11 231 1.6 1.6 0.00 0.00 0.00 80 997.2
20260504035428 11 200 3.2 4.8 0.00 0.00 0.00 76 996.9
20260504034215 10 193 3.2 6.4 0.00 0.00 0.00 80 996.9
20260504033612 11 75 3.2 4.8 0.00 0.00 0.00 76 996.6
20260504033036 11 237 0.0 1.6 0.00 0.00 0.00 73 997.2
20260504031244 11 97 6.4 6.4 0.00 0.00 0.00 73 996.6
20260504030018 11 234 0.0 0.0 0.00 0.00 0.00 72 996.6
20260504025414 11 233 0.0 1.6 0.00 0.00 0.00 72 996.9
20260504024824 11 230 0.0 3.2 0.00 0.00 0.00 72 996.9
20260504024220 11 234 0.0 0.0 0.00 0.00 0.00 75 996.9
20260504023633 11 241 1.6 1.6 0.00 0.00 0.00 72 997.2
20260504023027 11 230 0.0 3.2 0.00 0.00 0.00 71 996.9
20260504022437 11 21 3.2 3.2 0.00 0.00 0.00 71 996.9
20260504021834 11 235 0.0 0.0 0.00 0.00 0.00 70 996.9
20260504020620 11 235 0.0 0.0 0.00 0.00 0.00 71 996.6
20260504020020 11 233 0.0 0.0 0.00 0.00 0.00 68 996.6
20260504015443 12 228 0.0 1.6 0.00 0.00 0.00 67 996.6
20260504014826 12 230 0.0 0.0 0.00 0.00 0.00 67 996.6
20260504014244 12 230 0.0 1.6 0.00 0.00 0.00 66 996.2
20260504013650 12 230 0.0 1.6 0.00 0.00 0.00 64 996.2
20260504012412 12 230 0.0 0.0 0.00 0.00 0.00 67 996.2
20260504011837 12 234 0.0 0.0 0.00 0.00 0.00 66 996.6
20260504011214 12 240 0.0 0.0 0.00 0.00 0.00 67 996.6
20260504010635 12 233 0.0 0.0 0.00 0.00 0.00 62 996.6
20260504010049 12 239 0.0 0.0 0.00 0.00 0.00 62 996.2
20260504005438 12 234 0.0 0.0 0.00 0.00 0.00 63 996.6
20260504004247 13 234 0.0 0.0 0.00 0.00 0.00 62 996.6
20260504003614 13 235 0.0 0.0 0.00 0.00 0.00 60 996.6
20260504003040 13 231 0.0 0.0 0.00 0.00 0.00 52 996.6
20260504002436 13 234 0.0 0.0 0.00 0.00 0.00 51 996.6
20260504001818 14 242 0.0 0.0 0.00 0.00 0.00 48 996.2
20260504001219 14 236 0.0 0.0 0.00 0.00 0.00 55 996.6
20260504000654 15 237 0.0 0.0 0.00 0.00 0.00 47 996.6
20260504000042 15 231 0.0 1.6 0.00 0.00 0.00 45 996.2
20260503235412 15 233 0.0 0.0 0.00 0.00 0.00 46 996.2
20260503234815 15 234 0.0 0.0 0.00 0.00 0.00 45 996.6
20260503234236 15 235 0.0 0.0 0.00 0.00 0.00 42 996.2
20260503233627 16 235 0.0 0.0 0.00 0.00 0.00 39 996.2
20260503233035 16 228 1.6 3.2 0.00 0.00 0.00 40 996.2
20260503232447 16 160 3.2 4.8 0.00 0.00 0.00 38 996.2
20260503231819 16 176 6.4 9.7 0.00 0.00 0.00 37 996.6
20260503231252 16 145 6.4 9.7 0.00 0.00 0.00 37 996.6
20260503230636 16 163 3.2 6.4 0.00 0.00 0.00 38 996.9
20260503230041 16 211 1.6 3.2 0.00 0.00 0.00 40 996.9
20260503224223 16 202 3.2 4.8 0.00 0.00 0.00 37 997.2
20260503223614 16 231 3.2 4.8 0.00 0.00 0.00 42 996.9
20260503223014 16 192 3.2 4.8 0.00 0.00 0.00 37 996.9
20260503222422 16 137 8.0 11.3 0.00 0.00 0.00 38 997.2
20260503221820 16 203 4.8 6.4 0.00 0.00 0.00 37 997.2
20260503221224 17 189 9.7 12.9 0.00 0.00 0.00 35 997.2
20260503220654 16 176 4.8 16.1 0.00 0.00 0.00 35 997.2
20260503220044 16 162 8.0 12.9 0.00 0.00 0.00 36 997.2
20260503215439 17 254 3.2 4.8 0.00 0.00 0.00 40 997.2
20260503214810 17 217 3.2 4.8 0.00 0.00 0.00 36 997.2
20260503214224 17 166 6.4 9.7 0.00 0.00 0.00 36 997.2
20260503213647 17 191 3.2 4.8 0.00 0.00 0.00 35 997.2
20260503212440 16 240 3.2 3.2 0.00 0.00 0.00 43 997.2
20260503211827 17 163 8.0 12.9 0.00 0.00 0.00 35 997.2
20260503211227 16 238 1.6 3.2 0.00 0.00 0.00 38 997.2
20260503210647 16 238 1.6 4.8 0.00 0.00 0.00 39 997.2
20260503210017 16 240 1.6 12.9 0.00 0.00 0.00 37 997.6
20260503205430 16 160 4.8 6.4 0.00 0.00 0.00 39 997.6
20260503204242 16 224 1.6 3.2 0.00 0.00 0.00 40 997.6
20260503203038 16 228 1.6 1.6 0.00 0.00 0.00 38 997.9
20260503202422 16 219 4.8 9.7 0.00 0.00 0.00 36 997.9
20260503201816 16 203 3.2 6.4 0.00 0.00 0.00 37 997.9
20260503201234 16 225 0.0 3.2 0.00 0.00 0.00 37 997.9
20260503200625 16 200 3.2 6.4 0.00 0.00 0.00 35 998.3
20260503200026 16 228 3.2 6.4 0.00 0.00 0.00 40 998.3
20260503195409 16 245 0.0 4.8 0.00 0.00 0.00 35 998.6
20260503194821 16 186 4.8 12.9 0.00 0.00 0.00 36 998.6
20260503194241 16 226 1.6 3.2 0.00 0.00 0.00 39 998.9
20260503193621 16 151 9.7 11.3 0.00 0.00 0.00 36 998.9
20260503193043 16 158 3.2 9.7 0.00 0.00 0.00 38 998.9
20260503192436 16 144 4.8 6.4 0.00 0.00 0.00 36 998.9
20260503191842 16 216 3.2 6.4 0.00 0.00 0.00 37 998.9
20260503191249 16 241 4.8 12.9 0.00 0.00 0.00 38 999.3
20260503190636 16 231 3.2 4.8 0.00 0.00 0.00 43 999.6
20260503190052 15 255 1.6 3.2 0.00 0.00 0.00 41 999.6
20260503185423 16 232 6.4 6.4 0.00 0.00 0.00 42 999.6
20260503184846 16 231 1.6 4.8 0.00 0.00 0.00 43 999.6
20260503184216 16 185 8.0 12.9 0.00 0.00 0.00 38 1000.0
20260503183031 16 157 8.0 16.1 0.00 0.00 0.00 38 1000.0
20260503182446 15 131 1.6 11.3 0.00 0.00 0.00 44 1000.0
20260503181853 15 193 3.2 6.4 0.00 0.00 0.00 38 1000.0
20260503181236 15 211 3.2 4.8 0.00 0.00 0.00 40 1000.3
20260503180651 15 283 1.6 6.4 0.00 0.00 0.00 41 1000.3
20260503180027 15 209 3.2 3.2 0.00 0.00 0.00 47 1000.6
20260503175417 15 234 1.6 6.4 0.00 0.00 0.00 39 1000.3
20260503174820 15 169 9.7 11.3 0.00 0.00 0.00 38 1000.6
20260503174213 15 185 6.4 9.7 0.00 0.00 0.00 39 1000.6
20260503173628 15 161 1.6 6.4 0.00 0.00 0.00 47 1000.6
20260503173035 14 206 4.8 4.8 0.00 0.00 0.00 44 1001.0
20260503172413 13 248 3.2 4.8 0.00 0.00 0.00 48 1001.0
20260503171814 15 239 3.2 3.2 0.00 0.00 0.00 39 1001.0
20260503171254 14 216 3.2 3.2 0.00 0.00 0.00 40 1001.0
20260503150630 12 208 3.2 11.3 0.00 0.00 0.00 48 1002.3